Location: Hemaruka
(51.7801°N, 111.0917°W)
Time: 16:26:08
(UTC+00:00)

MOZHAYETS 4 - Pass Details

Date: 11 December 2023
Orbit: 654 x 672 km, 98.3° (Epoch: 23 February)

Event Time Altitude Azimuth Distance (km) Brightness Sun altitude
Rises 01:32:19 0° 1° (N) 3,039 11.0 -20.1°
Reaches altitude 10° 01:35:57 10° 331° (NNW) 2,120 10.5 -20.7°
Maximum altitude 01:37:40 12° 309° (NW) 1,984 10.6 -20.9°
Drops below altitude 10° 01:39:23 10° 287° (WNW) 2,115 11.2 -21.2°
Sets 01:43:00 0° 257° (WSW) 3,023 12.6 -21.7°
